Location: Arroyo de San Miguel
(40.9167°N, 4.6667°W)
Time: 01:30:36
(UTC+00:00)

Cosmos 1821 Rocket - Pass Details

Date: 19 May 2025
Orbit: 943 x 1004 km, 82.9° (Epoch: 23 June)

Event Time Altitude Azimuth Distance (km) Brightness Sun altitude
Rises 22:14:59 0° 353° (N) 3,632 8.1 -23.0°
Reaches altitude 10° 22:17:30 10° 355° (N) 2,678 7.2 -23.3°
Maximum altitude 22:23:37 79° 82° (E) 965 3.8 -23.8°
Enters shadow 22:25:06 54° 157° (SSE) 1,140 3.9 -24.0°
